CW9086 Weather Reports


Display with metric or nautical units.
time (UTC)temp
F
wind
direction
speed
MPH
gust
MPH
rain 1hr
in
rain 24hr
in
rain mn
in
humidity
%
barometer
mb
20260504213604 64 196 2.0 5.0 0.00 0.00 0.00 73 1012.3
20260504211604 64 195 1.0 9.0 0.00 0.00 0.00 74 1012.3
20260504211105 64 195 2.0 8.0 0.00 0.00 0.00 72 1012.4
20260504210604 65 210 2.0 9.0 0.00 0.00 0.00 74 1012.4
20260504210104 64 195 3.0 9.0 0.00 0.00 0.00 74 1012.4
20260504205606 64 213 2.0 6.0 0.00 0.00 0.00 74 1012.4
20260504205104 64 209 1.0 5.0 0.00 0.00 0.00 74 1012.4
20260504204604 64 204 2.0 5.0 0.00 0.00 0.00 74 1012.3
20260504204104 64 204 1.0 8.0 0.00 0.00 0.00 74 1012.3
20260504203604 64 203 3.0 8.0 0.00 0.00 0.00 75 1012.3
20260504203104 64 204 3.0 5.0 0.00 0.00 0.00 74 1012.3
20260504202604 64 200 2.0 8.0 0.00 0.00 0.00 75 1012.2
20260504202104 64 195 1.0 8.0 0.00 0.00 0.00 75 1012.2
20260504201604 64 211 2.0 6.0 0.00 0.00 0.00 75 1012.2
20260504201105 64 208 1.0 8.0 0.00 0.00 0.00 74 1012.3
20260504200104 63 200 3.0 9.0 0.00 0.00 0.00 75 1012.4
20260504195605 63 204 2.0 9.0 0.00 0.00 0.00 74 1012.3
20260504195104 64 195 2.0 10.0 0.00 0.00 0.00 76 1012.4
20260504194605 63 195 3.0 10.0 0.00 0.00 0.00 76 1012.4
20260504194105 63 195 1.0 9.0 0.00 0.00 0.00 77 1012.3
20260504193604 63 204 4.0 9.0 0.00 0.00 0.00 77 1012.4
20260504193105 62 213 1.0 9.0 0.00 0.00 0.00 78 1012.4
20260504192104 62 203 2.0 9.0 0.00 0.00 0.00 76 1012.4
20260504191105 62 196 1.0 5.0 0.00 0.00 0.00 79 1012.3
20260504190104 61 212 1.0 5.0 0.00 0.00 0.00 78 1012.3
20260504185604 61 196 2.0 6.0 0.00 0.00 0.00 78 1012.3
20260504185104 61 212 1.0 8.0 0.00 0.00 0.00 78 1012.3
20260504184604 61 195 1.0 8.0 0.00 0.00 0.00 79 1012.4
20260504184104 61 195 3.0 8.0 0.00 0.00 0.00 80 1012.4
20260504183604 60 196 1.0 5.0 0.00 0.00 0.00 80 1012.4
20260504182605 60 195 3.0 9.0 0.00 0.00 0.00 80 1012.2
20260504182106 60 199 1.0 3.0 0.00 0.00 0.00 80 1012.3
20260504181606 60 210 1.0 5.0 0.00 0.00 0.00 81 1012.2
20260504181105 60 208 1.0 6.0 0.00 0.00 0.00 80 1012.2
20260504180604 60 209 1.0 6.0 0.00 0.00 0.00 81 1012.2
20260504175605 59 195 2.0 6.0 0.00 0.00 0.00 81 1012.2
20260504175104 59 202 1.0 5.0 0.00 0.00 0.00 82 1012.3
20260504174104 59 195 1.0 6.0 0.00 0.00 0.00 83 1012.2
20260504173604 59 209 1.0 8.0 0.00 0.00 0.00 83 1012.1
20260504173103 58 195 1.0 8.0 0.00 0.00 0.00 84 1012.1
20260504172604 58 200 3.0 8.0 0.00 0.00 0.00 84 1012.1
20260504172105 58 195 1.0 6.0 0.00 0.00 0.00 84 1012.1
20260504171104 57 228 1.0 6.0 0.00 0.00 0.00 84 1012.0
20260504170604 57 206 1.0 9.0 0.00 0.00 0.00 84 1011.9
20260504160104 56 195 1.0 8.0 0.00 0.00 0.00 87 1011.5
20260504151106 55 195 1.0 6.0 0.00 0.00 0.00 88 1011.3
20260504150605 55 196 2.0 6.0 0.00 0.00 0.00 88 1011.3
20260504150105 55 195 1.0 6.0 0.00 0.00 0.00 88 1011.2
20260504141104 54 195 2.0 5.0 0.00 0.00 0.00 88 1010.9
20260504140603 54 195 1.0 5.0 0.00 0.00 0.00 88 1010.9
20260504140104 54 195 1.0 5.0 0.00 0.00 0.00 88 1010.8
20260504130606 54 195 2.0 6.0 0.00 0.00 0.00 89 1010.4
20260504130104 54 195 2.0 6.0 0.00 0.00 0.00 89 1010.4
20260504120105 54 195 2.0 8.0 0.00 0.00 0.00 88 1010.1
20260504110604 54 195 2.0 9.0 0.00 0.00 0.00 88 1009.7
20260504110103 54 195 2.0 9.0 0.00 0.00 0.00 88 1009.7
20260504100604 54 198 2.0 9.0 0.00 0.00 0.00 87 1009.6
20260504100103 54 195 3.0 9.0 0.00 0.00 0.00 87 1009.5
20260504090105 54 195 1.0 5.0 0.00 0.00 0.00 86 1009.3
20260504081605 54 195 1.0 3.0 0.00 0.00 0.00 84 1009.1
20260504080606 55 195 1.0 6.0 0.00 0.00 0.00 84 1008.9
20260504080106 55 195 2.0 3.0 0.00 0.00 0.00 83 1009.0
20260504070106 55 233 1.0 3.0 0.00 0.00 0.00 80 1008.3
20260504050605 58 212 0.0 0.0 0.00 0.00 0.00 75 1007.5
20260504050105 58 212 0.0 0.0 0.00 0.00 0.00 75 1007.5
20260504045605 58 212 0.0 0.0 0.00 0.00 0.00 75 1007.5
20260504045105 59 212 0.0 0.0 0.00 0.00 0.00 74 1007.4
20260504044605 59 212 0.0 0.0 0.00 0.00 0.00 73 1007.3
20260504044106 59 212 0.0 0.0 0.00 0.00 0.00 73 1007.3
20260504043105 59 212 0.0 1.0 0.00 0.00 0.00 72 1007.3
20260504042604 59 212 0.0 1.0 0.00 0.00 0.00 72 1007.3
20260504042105 60 212 0.0 2.0 0.00 0.00 0.00 72 1007.3
20260504041605 60 212 0.0 2.0 0.00 0.00 0.00 71 1007.3
20260504041105 61 212 0.0 1.0 0.00 0.00 0.00 70 1007.3
20260504040605 61 212 0.0 1.0 0.00 0.00 0.00 69 1007.2
20260504040105 62 212 0.0 0.0 0.00 0.00 0.00 68 1007.2
20260504035604 62 212 0.0 0.0 0.00 0.00 0.00 67 1007.1
20260504035104 63 212 0.0 0.0 0.00 0.00 0.00 65 1007.0
20260504034605 63 212 0.0 0.0 0.00 0.00 0.00 65 1007.0
20260504034105 64 212 0.0 0.0 0.00 0.00 0.00 64 1007.0
20260504033605 64 212 0.0 0.0 0.00 0.00 0.00 65 1006.9
20260504033104 65 213 0.0 1.0 0.00 0.00 0.00 64 1007.0
20260504032605 65 213 0.0 1.0 0.00 0.00 0.00 63 1006.9
20260504032104 66 213 0.0 1.0 0.00 0.00 0.00 62 1006.9
20260504031605 66 213 0.0 1.0 0.00 0.00 0.00 62 1006.9
20260504030605 67 213 0.0 2.0 0.00 0.00 0.00 60 1006.9
20260504030105 67 213 0.0 3.0 0.00 0.00 0.00 58 1006.9
20260504025604 67 213 1.0 3.0 0.00 0.00 0.00 56 1006.8
20260504025105 67 214 0.0 3.0 0.00 0.00 0.00 55 1006.9
20260504024605 67 214 1.0 3.0 0.00 0.00 0.00 55 1006.9
20260504024105 67 212 2.0 6.0 0.00 0.00 0.00 54 1006.9
20260504023605 67 214 2.0 6.0 0.00 0.00 0.00 55 1006.9
20260504022606 66 214 1.0 8.0 0.00 0.00 0.00 56 1007.0
20260504022105 66 214 2.0 8.0 0.00 0.00 0.00 56 1007.0
20260504021605 66 212 2.0 8.0 0.00 0.00 0.00 56 1007.0
20260504020605 66 213 2.0 8.0 0.00 0.00 0.00 59 1007.1
20260504020104 65 210 1.0 8.0 0.00 0.00 0.00 61 1007.2
20260504015606 65 214 2.0 8.0 0.00 0.00 0.00 62 1007.1
20260504015105 65 213 3.0 8.0 0.00 0.00 0.00 63 1007.1
20260504014605 65 212 2.0 10.0 0.00 0.00 0.00 65 1007.2
20260504013604 65 212 2.0 10.0 0.00 0.00 0.00 67 1007.2
20260504013105 65 212 2.0 5.0 0.00 0.00 0.00 67 1007.1
20260504012604 65 212 1.0 10.0 0.00 0.00 0.00 68 1007.2
20260504012105 65 215 2.0 10.0 0.00 0.00 0.00 67 1007.2
20260504011606 65 224 3.0 13.0 0.00 0.00 0.00 67 1007.3
20260504011104 65 211 2.0 13.0 0.00 0.00 0.00 66 1007.3
20260504010605 65 214 3.0 13.0 0.00 0.00 0.00 66 1007.4
20260504010106 65 212 2.0 8.0 0.00 0.00 0.00 66 1007.4
20260504005605 65 209 2.0 8.0 0.00 0.00 0.00 67 1007.4
20260504005104 65 213 2.0 9.0 0.00 0.00 0.00 67 1007.4
20260504004605 65 213 2.0 10.0 0.00 0.00 0.00 68 1007.4
20260504004106 65 211 2.0 10.0 0.00 0.00 0.00 67 1007.5
20260504003605 65 212 2.0 10.0 0.00 0.00 0.00 68 1007.5
20260504003104 65 210 3.0 12.0 0.00 0.00 0.00 68 1007.4
20260504002606 65 211 2.0 12.0 0.00 0.00 0.00 68 1007.5
20260504002105 66 211 3.0 12.0 0.00 0.00 0.00 67 1007.6
20260504001605 66 213 3.0 9.0 0.00 0.00 0.00 67 1007.6
20260504000604 66 212 3.0 12.0 0.00 0.00 0.00 67 1007.5
20260503235604 66 212 4.0 10.0 0.00 0.00 0.00 66 1007.6
20260503233604 67 211 3.0 10.0 0.00 0.00 0.00 65 1007.8
20260503233104 67 211 2.0 10.0 0.00 0.00 0.00 65 1007.7
20260503232604 67 211 4.0 10.0 0.00 0.00 0.00 64 1007.8
20260503232104 68 212 3.0 10.0 0.00 0.00 0.00 63 1007.9
20260503231606 68 212 2.0 9.0 0.00 0.00 0.00 63 1007.9
20260503231105 68 212 3.0 12.0 0.00 0.00 0.00 62 1007.9
20260503230605 69 212 3.0 12.0 0.00 0.00 0.00 60 1007.9
20260503230105 69 213 3.0 12.0 0.00 0.00 0.00 59 1008.0
20260503225604 70 211 5.0 12.0 0.00 0.00 0.00 57 1008.1
20260503225104 70 212 3.0 13.0 0.00 0.00 0.00 57 1008.1
20260503224105 72 212 3.0 9.0 0.00 0.00 0.00 54 1008.1
20260503223605 73 208 3.0 9.0 0.00 0.00 0.00 52 1008.1
20260503223105 74 215 2.0 9.0 0.00 0.00 0.00 52 1008.2
20260503222604 74 212 2.0 6.0 0.00 0.00 0.00 52 1008.2
20260503222104 75 214 2.0 8.0 0.00 0.00 0.00 52 1008.3
20260503221605 75 214 3.0 8.0 0.00 0.00 0.00 51 1008.3
20260503221105 75 205 2.0 6.0 0.00 0.00 0.00 52 1008.3
20260503220604 75 211 2.0 6.0 0.00 0.00 0.00 51 1008.2
20260503220104 75 212 1.0 6.0 0.00 0.00 0.00 53 1008.3
20260503215605 75 209 1.0 10.0 0.00 0.00 0.00 54 1008.3
20260503215105 75 213 2.0 10.0 0.00 0.00 0.00 53 1008.4
20260503214604 75 211 2.0 6.0 0.00 0.00 0.00 53 1008.4
20260503214105 75 211 2.0 6.0 0.00 0.00 0.00 52 1008.4